Location: Trois-Rivi�res
(46.3500°N, 72.5500°W)
Time: 12:35:31
(UTC-05:00)

Daily predictions for brighter satellites

Satellite Brightness Start Highest point End
(mag) Time Altitude Azimuth Time Altitude Azimuth Time Altitude Azimuth
Cosmos 990 Rocket 4.4 16:28:36 10° SSW 16:33:42 65° WNW 16:38:51 10° NNE
MOS 1 4.5 16:34:21 10° SE 16:39:48 50° ENE 16:45:15 10° N
Cosmos 1782 4.3 16:43:28 10° SW 16:47:13 38° WNW 16:51:02 10° N
SPOT 3 Rocket 3.7 16:42:39 10° SE 16:47:41 53° ENE 16:52:44 10° N
SL-8 Rocket 4.2 16:42:20 10° N 16:48:15 46° ENE 16:54:08 10° SSE
PAYLOAD A 3.9 16:43:41 10° SSE 16:48:27 74° ENE 16:53:26 10° N
COSMOS 2406 3.2 16:43:56 10° NNW 16:49:41 73° ENE 16:55:24 10° SSE
Cosmos 1300 Rocket 4.3 16:46:45 10° NNW 16:51:02 58° W 16:55:16 10° S
Cosmos 2278 Rocket 3.7 16:48:09 10° SE 16:51:28 16° E 16:54:41 10° ENE
SMAP 3.2 16:47:08 10° SE 16:51:39 52° ENE 16:56:10 10° N
BREEZE M DEB (TANK) 2.5 16:49:34 10° WNW 16:52:04 52° N 16:57:46 10° E
YAOGAN 1 2.8 16:50:10 10° SE 16:54:20 49° ENE 16:58:31 10° N
Cosmos 2366 rocket 4.4 16:52:14 10° N 16:58:14 41° ENE 17:04:10 10° SE
Cosmos 2218 Rocket 4.2 16:53:57 10° N 17:00:03 48° ENE 17:06:02 10° SSE
Meteor 1-5 Rocket 4.1 16:55:04 10° N 17:00:26 66° ENE 17:05:56 10° SSE
Cosmos 2181 Rocket 4.0 16:57:07 10° S 17:03:24 69° E 17:09:48 10° NNE
IDEFIX/ARIANE 42P 2.5 16:58:39 10° SSE 17:03:48 68° ENE 17:08:59 10° N
USA 32 4.4 16:59:10 10° SSE 17:04:05 44° E 17:09:01 10° NNE
Cosmos 1378 Rocket 3.6 17:00:19 10° SSW 17:04:37 80° W 17:08:58 10° N
USA 234 3.3 16:58:13 10° NE 17:04:48 90° SE 17:11:22 10° SW
Cosmos 372 Rocket 4.0 17:04:57 10° SSW 17:10:09 72° ESE 17:15:25 10° NNE
Abrixas 2.7 17:07:47 10° W 17:10:42 55° N 17:12:32 20° ENE
APEX 4.3 17:04:16 10° SSW 17:10:57 90° NW 17:16:11 10° NNE
SJ-7 4.4 17:08:12 10° SSE 17:12:24 71° ENE 17:16:39 10° N
Cosmos 2082 Rocket 3.4 17:08:31 10° N 17:12:50 22° NE 17:15:49 15° E
Cosmos 1484 Rocket 3.4 17:09:45 10° SE 17:13:05 31° ENE 17:16:25 10° N
Cosmos 1455 Rocket 3.4 17:09:37 10° N 17:13:48 41° ENE 17:17:59 10° SSE
OTV 4 3.3 17:12:53 10° SW 17:14:19 13° S 17:15:45 10° SSE
Cosmos 1295 Rocket 4.5 17:11:54 10° N 17:18:04 88° W 17:24:10 10° S
Cosmos 1833 Rocket 3.9 17:14:44 10° N 17:18:58 21° NE 17:21:00 18° ENE
CZ-4 R/B 4.4 17:16:21 10° SSE 17:20:28 69° ENE 17:24:37 10° N
Cosmos 2341 Rocket 4.5 17:15:58 10° NNW 17:22:07 64° W 17:28:13 10° S
Thor Agena Rocket 3.5 17:18:15 10° NNE 17:23:28 81° ESE 17:28:43 10° SSW
Cosmos 1125 Rocket 4.0 17:18:46 10° SSW 17:24:01 63° WNW 17:29:20 10° NNE
ATLAS 2AS CENTAUR R/B 3.0 17:16:32 10° NW 17:24:44 79° NE 17:32:25 10° SE
Cosmos 494 Rocket 4.0 17:19:52 10° NNW 17:25:02 56° ENE 17:30:11 10° SE
ATLAS CENTAUR R/B 4.0 17:27:41 10° NW 17:29:21 12° NNW 17:30:59 10° N
SL-08 R/B 4.5 17:26:00 10° N 17:32:27 76° E 17:38:45 10° SSE
Cosmos 1500 3.8 17:31:45 10° N 17:35:15 33° ENE 17:38:45 10° SE
Okean 1 3.8 17:33:15 10° SSE 17:37:00 38° E 17:38:44 25° NE
Cosmos 2251 Rocket 3.5 17:32:48 10° NNW 17:38:12 82° ENE 17:43:32 10° SSE
Meteor 1-18 Rocket 4.2 17:34:32 10° S 17:40:04 61° E 17:45:43 10° NNE
Cosmos 2263 Rocket 3.9 17:36:09 10° WSW 17:40:57 28° NW 17:45:49 10° N
ISS -3.3 17:45:15 10° SW 17:48:32 68° SSE 17:49:07 53° E
BREEZE-M DEB (TANK) 4.0 17:40:39 10° W 17:48:45 59° N 17:50:07 35° NE
MSX 4.1 17:48:12 10° S 17:53:55 70° WSW 17:59:42 10° NNW
SL-27 R/B 3.5 17:50:29 10° NNW 17:54:03 49° WSW 17:57:35 10° S
Meteor 2-21 4.4 17:49:25 10° N 17:55:35 61° ENE 18:01:39 10° SSE
Nadezhda 3 Rocket 4.2 17:51:50 10° SSE 17:57:42 47° E 18:03:39 10° NNE
Cosmos 1812 2.6 17:53:59 10° S 17:57:51 88° W 18:00:23 21° N
Cosmos 1346 Rocket 3.5 17:54:23 10° SSE 17:57:08 33° SE 17:57:08 33° SE
COSMO-SKYMED 1 2.4 17:57:35 22° NNE 18:00:22 74° ESE 18:04:43 10° S
CZ-4 R/B 4.0 17:58:36 10° SSW 18:01:58 23° W 18:05:20 10° NW
Cosmos 1844 Rocket 3.0 18:01:18 10° SW 18:06:52 65° WNW 18:11:09 18° NNE
GEOS 3 Rocket 3.8 18:01:48 10° SSE 18:06:54 68° SW 18:12:01 10° NW
CZ-2C R/B 4.3 18:04:14 10° SSW 18:08:39 32° W 18:13:12 10° NNW
Cosmos 1238 Rocket 3.4 18:10:07 10° SSW 18:12:55 39° WNW 18:13:47 30° NW
Cosmos 1975 3.2 18:11:44 10° NNW 18:15:48 65° W 18:19:48 10° S
Cosmos 1844 3.8 18:11:32 10° SW 18:17:05 71° WNW 18:20:25 25° NNE
CZ-3A R/B 4.1 18:11:46 10° W 18:17:46 68° NNW 18:35:18 25° ENE
Cosmos 2297 4.3 18:13:05 10° S 18:17:27 36° SE 18:17:27 36° SE
BREEZE-M DEB (TANK) 3.7 18:17:30 10° W 18:18:34 26° W 18:18:34 26° W
Meteor 2-14 Rocket 4.3 18:13:28 10° N 18:19:38 68° E 18:25:44 10° SSE
Cosmos 1536 Rocket 4.1 18:19:45 10° SSW 18:24:09 59° WNW 18:27:23 18° N
Meteor 1-19 Rocket 4.3 18:24:12 10° S 18:29:44 57° E 18:29:44 57° E
FengYun 1-2 T 4.4 18:32:13 53° NE 18:32:13 53° NE 18:37:07 10° N
Cosmos 2278 Rocket 2.2 18:29:08 10° SSW 18:34:47 82° WNW 18:36:35 46° NNE
Meteor 2-21 Rocket 4.4 18:29:09 10° N 18:35:24 85° W 18:41:34 10° S
Meteor 2-16 Rocket 4.3 18:35:02 10° N 18:41:09 89° E 18:47:14 10° S
Meteor 1-13 Rocket 4.1 18:38:57 10° S 18:44:36 89° ESE 18:46:06 52° N
USA 234 4.0 18:45:29 35° NNE 18:47:28 44° NNW 18:53:34 10° W
CZ-3B DEB 2.9 18:47:16 10° WSW 18:52:06 75° NNW 18:55:17 45° NE
Cosmos 1535 Rocket 4.4 18:46:24 10° N 18:52:47 87° W 18:59:02 10° S
Timation 2 Rocket 4.3 18:49:04 10° NNW 18:55:51 75° WSW 18:59:44 28° SSE
Cosmos 2082 Rocket 2.2 18:51:54 10° NNW 18:57:35 78° WSW 18:57:45 77° SW
Cosmos 1934 Rocket 3.9 18:51:42 10° N 19:06:37 - S 18:57:07 69° NNE
NOSS 3-4 (A) 3.8 18:53:25 10° NW 18:59:51 61° NNE 18:59:51 61° NNE
NOSS 3-4 (C) 3.8 18:53:31 10° NW 18:59:55 61° NNE 18:59:55 61° NNE
Cosmos 1833 Rocket 2.9 18:57:55 10° NNW 19:02:46 65° NW 19:02:46 65° NW
BREEZE-M DEB (TANK) 3.8 19:01:12 10° WNW 19:05:27 44° NW 19:05:27 44° NW
NOSS 3-3 (A) 4.2 19:02:51 10° SW 19:09:07 70° NW 19:09:42 66° NNW
NOSS 3-3 (C) 4.1 19:02:58 10° SW 19:09:12 70° NW 19:09:45 67° NNW
Cosmos 1821 Rocket 4.4 19:13:20 10° NNW 19:19:19 57° W 19:25:14 10° S
BREEZE-M DEB (TANK) 4.5 19:31:59 10° WNW 19:44:29 49° NNW 19:44:29 49° NNW
